User: anonymous   Login
Location: Caltech
(34.1382°N, 118.1253°W)
Time: 16:10:37
(UTC-07:00)
Language:

Iridium 94 - Orbit

View from above orbital plane
View from above orbital plane
View from above satellite
View from above satellite

Ground track
Ground track

The orbit data is extracted from the following two-line orbital elements,

1 27374U 02005C   16122.37632956  .00000222  00000-0  72082-4 0  9992
2 27374  86.3969  67.8860 0002034  56.9313  55.7889 14.34222442756926
Epoch (UTC): 01 May 2016 09:01:54
Eccentricity: 0.0002034
inclination: 86.3969°
perigee height: 776 km
apogee height: 779 km
right ascension of ascending node: 67.8860°
argument of perigee: 56.9313°
revolutions per day: 14.34222442
mean anomaly at epoch: 55.7889°
orbit number at epoch: 75692

The dashed part of the orbit path shows where the satellite is in the earth's shadow,  

DLR